Sanford, FL

6:00 PM EDT on April 27, 2017 (GMT -0400)
Orlando Sanford

Weather History for KSFB - July, 2013

Change the Weather History Date:

Saturday, July 13, 2013

  Actual Average Record
Temperature  
Mean Temperature 81 °F -  
Max Temperature 93 °F 93 °F 100 °F (1980)
Min Temperature 73 °F 72 °F 68 °F (1959)
Cooling Degree Days 16    
Growing Degree Days 31 (Base 50)    
Moisture  
Dew Point 72 °F    
Average Humidity 80    
Maximum Humidity 94    
Minimum Humidity 53    
Precipitation  
Precipitation 0.00 in - - ()
Sea Level Pressure  
Sea Level Pressure 29.97 in    
Wind  
Wind Speed 5 mph (SSE)    
Max Wind Speed 16 mph    
Max Gust Speed 25 mph    
Visibility 10 miles    
Events      
Averages and records for this station are not official NWS values.
T = Trace of Precipitation, MM = Missing Value Source: NWS Daily Summary

Daily Weather History Graph

Daily Weather History Graph

Search for Another Location

Airport or City:

Trip Planner

Search our weather history database for the weather conditions in past years. The results will help you decide how hot, cold, wet, or windy it might be!

Date:

Astronomy

Jul. 13, 2013 Rise Set
Actual Time 6:35 AM EDT 8:25 PM EDT
Civil Twilight 6:09 AM EDT 8:51 PM EDT
Nautical Twilight 5:37 AM EDT 9:23 PM EDT
Astronomical Twilight 5:03 AM EDT 9:57 PM EDT
Moon 11:21 AM EDT (7/13) 11:36 PM EDT (7/13)
Length of Visible Light 14h 42m
Length of Day
13h 49m
Waxing Crescent, 25% of the Moon is Illuminated
Jul 13
Waxing Crescent
Jul 15
First Quarter
Jul 22
Full
Jul 29
Last Quarter
Aug 6
New

Hourly Weather History & Observations

Time (EDT) Temp. Heat Index Dew Point Humidity Pressure Visibility Wind Dir Wind Speed Gust Speed Precip Events Conditions
12:53 AM 75.9 °F - 73.0 °F 91% 29.95 in 10.0 mi Calm Calm - N/A   Clear
1:53 AM 75.0 °F - 73.0 °F 94% 29.94 in 10.0 mi SE 3.5 mph - N/A   Clear
2:53 AM 75.9 °F - 73.0 °F 91% 29.92 in 10.0 mi South 5.8 mph - N/A   Clear
3:53 AM 75.9 °F - 73.9 °F 94% 29.93 in 10.0 mi South 5.8 mph - N/A   Clear
4:53 AM 75.0 °F - 73.0 °F 94% 29.94 in 10.0 mi South 4.6 mph - N/A   Clear
5:53 AM 73.9 °F - 72.0 °F 93% 29.94 in 10.0 mi Calm Calm - N/A   Clear
6:53 AM 73.9 °F - 72.0 °F 93% 29.94 in 10.0 mi Calm Calm - N/A   Clear
7:53 AM 75.9 °F - 73.0 °F 91% 29.94 in 10.0 mi ESE 3.5 mph - N/A   Clear
8:53 AM 78.1 °F - 73.9 °F 87% 29.96 in 10.0 mi SSE 5.8 mph - N/A   Clear
9:53 AM 81.0 °F 85.2 °F 72.0 °F 74% 29.99 in 10.0 mi SSE 5.8 mph - N/A   Clear
10:53 AM 84.9 °F 90.7 °F 72.0 °F 65% 29.99 in 10.0 mi SSE 8.1 mph - N/A   Clear
11:53 AM 87.1 °F 92.8 °F 71.1 °F 59% 29.99 in 10.0 mi SSE 6.9 mph - N/A   Clear
12:53 PM 88.0 °F 93.8 °F 71.1 °F 57% 29.97 in 10.0 mi South 9.2 mph - N/A   Partly Cloudy
1:53 PM 89.1 °F 94.1 °F 70.0 °F 53% 29.95 in 10.0 mi SE 8.1 mph - N/A   Scattered Clouds
2:53 PM 88.0 °F 92.9 °F 70.0 °F 55% 29.95 in 10.0 mi ESE 16.1 mph 25.3 mph N/A   Clear
3:53 PM 82.9 °F 88.0 °F 72.0 °F 69% 29.96 in 10.0 mi SSE 13.8 mph - N/A   Partly Cloudy
4:53 PM 81.0 °F 84.4 °F 70.0 °F 69% 29.98 in 10.0 mi South 11.5 mph - N/A   Mostly Cloudy
5:53 PM 80.1 °F 83.6 °F 71.1 °F 74% 29.98 in 10.0 mi West 3.5 mph - N/A   Clear
6:53 PM 78.1 °F - 71.1 °F 79% 29.97 in 10.0 mi NW 3.5 mph - N/A   Clear
7:53 PM 78.1 °F - 71.1 °F 79% 29.97 in 10.0 mi NNE 6.9 mph - N/A   Clear
8:53 PM 75.9 °F - 72.0 °F 87% 29.98 in 10.0 mi East 5.8 mph - N/A   Clear
9:53 PM 73.9 °F - 72.0 °F 93% 30.00 in 10.0 mi ESE 4.6 mph - N/A   Clear
10:53 PM 75.0 °F - 72.0 °F 90% 30.01 in 10.0 mi South 5.8 mph - N/A   Clear
11:53 PM 75.0 °F - 71.1 °F 87% 30.02 in 10.0 mi South 6.9 mph - N/A   Clear